| time (UTC) | temp F | wind direction | speed MPH | gust MPH | rain 1hr in | rain 24hr in | rain mn in | humidity % | barometer mb |
| 20260504213005 | 73 | 241 | 2.0 | 17.0 | 0.00 | 0.00 | 0.00 | 39 | 1010.3 |
| 20260504212506 | 73 | 226 | 7.0 | 13.0 | 0.00 | 0.00 | 0.00 | 39 | 1010.3 |
| 20260504212006 | 73 | 209 | 5.0 | 13.0 | 0.00 | 0.00 | 0.00 | 39 | 1010.4 |
| 20260504211504 | 73 | 203 | 2.0 | 15.0 | 0.00 | 0.00 | 0.00 | 39 | 1010.4 |
| 20260504210506 | 73 | 233 | 8.0 | 18.0 | 0.00 | 0.00 | 0.00 | 39 | 1010.3 |
| 20260504210005 | 74 | 231 | 9.0 | 16.0 | 0.00 | 0.00 | 0.00 | 39 | 1010.4 |
| 20260504205005 | 74 | 208 | 2.0 | 12.0 | 0.00 | 0.00 | 0.00 | 39 | 1010.3 |
| 20260504204505 | 74 | 222 | 2.0 | 16.0 | 0.00 | 0.00 | 0.00 | 39 | 1010.4 |
| 20260504204005 | 75 | 196 | 10.0 | 15.0 | 0.00 | 0.00 | 0.00 | 38 | 1010.5 |
| 20260504202505 | 75 | 205 | 1.0 | 14.0 | 0.00 | 0.00 | 0.00 | 38 | 1010.5 |
| 20260504202005 | 75 | 215 | 2.0 | 13.0 | 0.00 | 0.00 | 0.00 | 38 | 1010.5 |
| 20260504201505 | 75 | 223 | 5.0 | 17.0 | 0.00 | 0.00 | 0.00 | 38 | 1010.7 |
| 20260504200005 | 76 | 213 | 6.0 | 13.0 | 0.00 | 0.00 | 0.00 | 37 | 1010.8 |
| 20260504195505 | 76 | 204 | 2.0 | 13.0 | 0.00 | 0.00 | 0.00 | 37 | 1010.8 |
| 20260504195005 | 76 | 217 | 9.0 | 15.0 | 0.00 | 0.00 | 0.00 | 36 | 1010.9 |
| 20260504194505 | 77 | 211 | 1.0 | 14.0 | 0.00 | 0.00 | 0.00 | 36 | 1010.9 |
| 20260504194005 | 77 | 232 | 1.0 | 10.0 | 0.00 | 0.00 | 0.00 | 37 | 1011.0 |
| 20260504193005 | 78 | 202 | 2.0 | 12.0 | 0.00 | 0.00 | 0.00 | 35 | 1011.1 |
| 20260504192505 | 78 | 224 | 5.0 | 12.0 | 0.00 | 0.00 | 0.00 | 35 | 1011.1 |
| 20260504192005 | 79 | 199 | 5.0 | 18.0 | 0.00 | 0.00 | 0.00 | 35 | 1011.1 |
| 20260504191505 | 80 | 232 | 1.0 | 10.0 | 0.00 | 0.00 | 0.00 | 34 | 1011.2 |
| 20260504191005 | 81 | 204 | 5.0 | 16.0 | 0.00 | 0.00 | 0.00 | 34 | 1011.2 |
| 20260504190506 | 81 | 207 | 0.0 | 3.0 | 0.00 | 0.00 | 0.00 | 34 | 1011.3 |
| 20260504190005 | 82 | 210 | 2.0 | 10.0 | 0.00 | 0.00 | 0.00 | 34 | 1011.5 |
| 20260504185504 | 82 | 193 | 3.0 | 12.0 | 0.00 | 0.00 | 0.00 | 33 | 1011.5 |
| 20260504185004 | 83 | 196 | 6.0 | 12.0 | 0.00 | 0.00 | 0.00 | 32 | 1011.4 |
| 20260504184505 | 84 | 197 | 3.0 | 10.0 | 0.00 | 0.00 | 0.00 | 32 | 1011.4 |
| 20260504184005 | 85 | 200 | 3.0 | 16.0 | 0.00 | 0.00 | 0.00 | 31 | 1011.6 |
| 20260504183505 | 86 | 224 | 3.0 | 18.0 | 0.00 | 0.00 | 0.00 | 32 | 1011.6 |
| 20260504183005 | 86 | 207 | 5.0 | 15.0 | 0.00 | 0.00 | 0.00 | 32 | 1011.6 |
| 20260504182505 | 85 | 224 | 2.0 | 12.0 | 0.00 | 0.00 | 0.00 | 33 | 1011.6 |
| 20260504182005 | 85 | 202 | 1.0 | 9.0 | 0.00 | 0.00 | 0.00 | 32 | 1011.8 |
| 20260504181505 | 85 | 214 | 3.0 | 10.0 | 0.00 | 0.00 | 0.00 | 32 | 1011.8 |
| 20260504181005 | 86 | 184 | 2.0 | 12.0 | 0.00 | 0.00 | 0.00 | 31 | 1011.9 |
| 20260504180505 | 86 | 219 | 3.0 | 15.0 | 0.00 | 0.00 | 0.00 | 33 | 1012.1 |
| 20260504180005 | 86 | 224 | 3.0 | 13.0 | 0.00 | 0.00 | 0.00 | 32 | 1012.2 |
| 20260504175505 | 86 | 216 | 5.0 | 14.0 | 0.00 | 0.00 | 0.00 | 33 | 1012.2 |
| 20260504174505 | 85 | 221 | 2.0 | 7.0 | 0.00 | 0.00 | 0.00 | 34 | 1012.2 |
| 20260504174005 | 85 | 193 | 5.0 | 12.0 | 0.00 | 0.00 | 0.00 | 32 | 1012.2 |
| 20260504173505 | 86 | 200 | 11.0 | 20.0 | 0.00 | 0.00 | 0.00 | 31 | 1012.2 |
| 20260504173006 | 87 | 221 | 8.0 | 12.0 | 0.00 | 0.00 | 0.00 | 31 | 1012.4 |
| 20260504172505 | 89 | 208 | 5.0 | 10.0 | 0.00 | 0.00 | 0.00 | 32 | 1012.4 |
| 20260504172005 | 89 | 225 | 1.0 | 8.0 | 0.00 | 0.00 | 0.00 | 33 | 1012.6 |
| 20260504171505 | 89 | 319 | 0.0 | 8.0 | 0.00 | 0.00 | 0.00 | 33 | 1012.7 |
| 20260504171005 | 89 | 191 | 6.0 | 18.0 | 0.00 | 0.00 | 0.00 | 32 | 1012.9 |
| 20260504170506 | 88 | 225 | 0.0 | 8.0 | 0.00 | 0.00 | 0.00 | 35 | 1012.7 |
| 20260504151004 | 76 | 219 | 2.0 | 12.0 | 0.00 | 0.00 | 0.00 | 46 | 1013.9 |
| 20260504150504 | 76 | 225 | 1.0 | 9.0 | 0.00 | 0.00 | 0.00 | 46 | 1013.8 |
| 20260504140504 | 79 | 200 | 2.0 | 9.0 | 0.00 | 0.00 | 0.00 | 48 | 1014.1 |
| 20260504130505 | 67 | 227 | 1.0 | 10.0 | 0.00 | 0.00 | 0.00 | 55 | 1014.6 |
| 20260504110505 | 51 | 180 | 0.0 | 2.0 | 0.00 | 0.00 | 0.00 | 86 | 1015.4 |
| 20260504100505 | 47 | 225 | 0.0 | 0.0 | 0.00 | 0.00 | 0.00 | 86 | 1015.5 |
| 20260504082005 | 47 | 225 | 2.0 | 12.0 | 0.00 | 0.00 | 0.00 | 78 | 1015.5 |
| 20260504081504 | 47 | 202 | 2.0 | 7.0 | 0.00 | 0.00 | 0.00 | 78 | 1015.5 |
| 20260504081004 | 47 | 202 | 0.0 | 6.0 | 0.00 | 0.00 | 0.00 | 77 | 1015.5 |
| 20260504080505 | 46 | 190 | 1.0 | 3.0 | 0.00 | 0.00 | 0.00 | 77 | 1015.5 |
| 20260504050505 | 47 | 225 | 0.0 | 2.0 | 0.00 | 0.00 | 0.00 | 72 | 1015.0 |
| 20260504050004 | 47 | 225 | 0.0 | 3.0 | 0.00 | 0.00 | 0.00 | 72 | 1015.0 |
| 20260504045504 | 47 | 212 | 1.0 | 5.0 | 0.00 | 0.00 | 0.00 | 71 | 1015.0 |
| 20260504045004 | 47 | 202 | 1.0 | 6.0 | 0.00 | 0.00 | 0.00 | 71 | 1014.9 |
| 20260504044504 | 48 | 222 | 0.0 | 3.0 | 0.00 | 0.00 | 0.00 | 71 | 1014.8 |
| 20260504044004 | 48 | 225 | 0.0 | 6.0 | 0.00 | 0.00 | 0.00 | 70 | 1014.7 |
| 20260504043505 | 48 | 202 | 1.0 | 7.0 | 0.00 | 0.00 | 0.00 | 70 | 1014.9 |
| 20260504043004 | 48 | 217 | 0.0 | 5.0 | 0.00 | 0.00 | 0.00 | 69 | 1014.8 |
| 20260504042504 | 48 | 213 | 0.0 | 7.0 | 0.00 | 0.00 | 0.00 | 69 | 1014.9 |
| 20260504042004 | 48 | 203 | 2.0 | 7.0 | 0.00 | 0.00 | 0.00 | 69 | 1014.7 |
| 20260504041504 | 48 | 212 | 2.0 | 6.0 | 0.00 | 0.00 | 0.00 | 69 | 1014.8 |
| 20260504041004 | 48 | 203 | 1.0 | 5.0 | 0.00 | 0.00 | 0.00 | 68 | 1014.7 |
| 20260504040504 | 48 | 206 | 1.0 | 7.0 | 0.00 | 0.00 | 0.00 | 67 | 1014.7 |
| 20260504040004 | 48 | 207 | 1.0 | 7.0 | 0.00 | 0.00 | 0.00 | 67 | 1014.6 |
| 20260504035504 | 48 | 202 | 0.0 | 7.0 | 0.00 | 0.00 | 0.00 | 67 | 1014.6 |
| 20260504034504 | 48 | 204 | 1.0 | 6.0 | 0.00 | 0.00 | 0.00 | 65 | 1014.6 |
| 20260504033004 | 48 | 217 | 1.0 | 7.0 | 0.00 | 0.00 | 0.00 | 63 | 1014.4 |
| 20260504032003 | 48 | 215 | 2.0 | 7.0 | 0.00 | 0.00 | 0.00 | 63 | 1014.4 |
| 20260504031504 | 48 | 202 | 1.0 | 3.0 | 0.00 | 0.00 | 0.00 | 62 | 1014.3 |
| 20260504031004 | 48 | 202 | 1.0 | 3.0 | 0.00 | 0.00 | 0.00 | 62 | 1014.3 |
| 20260504030504 | 48 | 225 | 2.0 | 6.0 | 0.00 | 0.00 | 0.00 | 62 | 1014.4 |
| 20260504025505 | 49 | 215 | 0.0 | 0.0 | 0.00 | 0.00 | 0.00 | 61 | 1014.2 |
| 20260504025004 | 49 | 213 | 0.0 | 0.0 | 0.00 | 0.00 | 0.00 | 60 | 1014.3 |
| 20260504024504 | 49 | 209 | 2.0 | 7.0 | 0.00 | 0.00 | 0.00 | 59 | 1014.3 |
| 20260504024004 | 49 | 218 | 0.0 | 5.0 | 0.00 | 0.00 | 0.00 | 59 | 1014.3 |
| 20260504023504 | 49 | 180 | 1.0 | 5.0 | 0.00 | 0.00 | 0.00 | 58 | 1014.3 |
| 20260504022504 | 50 | 220 | 0.0 | 2.0 | 0.00 | 0.00 | 0.00 | 58 | 1014.4 |
| 20260504022004 | 50 | 202 | 0.0 | 6.0 | 0.00 | 0.00 | 0.00 | 58 | 1014.4 |
| 20260504021504 | 50 | 202 | 0.0 | 2.0 | 0.00 | 0.00 | 0.00 | 57 | 1014.5 |
| 20260504021005 | 50 | 218 | 0.0 | 3.0 | 0.00 | 0.00 | 0.00 | 56 | 1014.4 |
| 20260504020504 | 50 | 195 | 0.0 | 7.0 | 0.00 | 0.00 | 0.00 | 55 | 1014.3 |
| 20260504015504 | 50 | 225 | 0.0 | 3.0 | 0.00 | 0.00 | 0.00 | 54 | 1014.4 |
| 20260504014504 | 50 | 203 | 0.0 | 5.0 | 0.00 | 0.00 | 0.00 | 54 | 1014.3 |
| 20260504014004 | 50 | 203 | 1.0 | 5.0 | 0.00 | 0.00 | 0.00 | 53 | 1014.3 |
| 20260504013504 | 50 | 212 | 0.0 | 0.0 | 0.00 | 0.00 | 0.00 | 53 | 1014.2 |
| 20260504013004 | 51 | 225 | 0.0 | 0.0 | 0.00 | 0.00 | 0.00 | 52 | 1014.3 |
| 20260504012504 | 51 | 180 | 0.0 | 0.0 | 0.00 | 0.00 | 0.00 | 52 | 1014.3 |
| 20260504012004 | 51 | 202 | 0.0 | 0.0 | 0.00 | 0.00 | 0.00 | 52 | 1014.2 |
| 20260504011503 | 51 | 213 | 0.0 | 0.0 | 0.00 | 0.00 | 0.00 | 52 | 1014.1 |
| 20260504011004 | 50 | 225 | 1.0 | 6.0 | 0.00 | 0.00 | 0.00 | 52 | 1014.1 |
| 20260504010505 | 50 | 202 | 0.0 | 0.0 | 0.00 | 0.00 | 0.00 | 51 | 1014.0 |
| 20260504010004 | 50 | 225 | 0.0 | 0.0 | 0.00 | 0.00 | 0.00 | 51 | 1013.7 |
| 20260504005503 | 50 | 225 | 0.0 | 0.0 | 0.00 | 0.00 | 0.00 | 51 | 1013.6 |
| 20260504005004 | 51 | 225 | 0.0 | 0.0 | 0.00 | 0.00 | 0.00 | 50 | 1013.6 |
| 20260504004005 | 51 | 225 | 0.0 | 0.0 | 0.00 | 0.00 | 0.00 | 50 | 1013.6 |
| 20260504003504 | 51 | 225 | 0.0 | 0.0 | 0.00 | 0.00 | 0.00 | 49 | 1013.3 |
| 20260504002504 | 51 | 270 | 0.0 | 0.0 | 0.00 | 0.00 | 0.00 | 48 | 1013.1 |
| 20260504002005 | 52 | 270 | 0.0 | 0.0 | 0.00 | 0.00 | 0.00 | 48 | 1013.2 |
| 20260504001504 | 52 | 270 | 0.0 | 0.0 | 0.00 | 0.00 | 0.00 | 46 | 1013.1 |
| 20260504001003 | 53 | 270 | 0.0 | 0.0 | 0.00 | 0.00 | 0.00 | 46 | 1013.0 |
| 20260504000505 | 53 | 270 | 0.0 | 0.0 | 0.00 | 0.00 | 0.00 | 45 | 1013.0 |
| 20260503235505 | 54 | 270 | 0.0 | 0.0 | 0.00 | 0.00 | 0.00 | 44 | 1013.0 |
| 20260503235006 | 55 | 248 | 0.0 | 0.0 | 0.00 | 0.00 | 0.00 | 44 | 1013.0 |
| 20260503234506 | 55 | 248 | 0.0 | 0.0 | 0.00 | 0.00 | 0.00 | 44 | 1013.0 |
| 20260503233506 | 56 | 248 | 0.0 | 0.0 | 0.00 | 0.00 | 0.00 | 43 | 1012.9 |
| 20260503233008 | 56 | 248 | 0.0 | 0.0 | 0.00 | 0.00 | 0.00 | 43 | 1013.0 |
| 20260503232509 | 57 | 248 | 0.0 | 0.0 | 0.00 | 0.00 | 0.00 | 42 | 1012.9 |
| 20260503232005 | 57 | 161 | 0.0 | 0.0 | 0.00 | 0.00 | 0.00 | 42 | 1012.9 |
| 20260503231505 | 57 | 257 | 0.0 | 0.0 | 0.00 | 0.00 | 0.00 | 42 | 1012.9 |
| 20260503231005 | 57 | 248 | 0.0 | 0.0 | 0.00 | 0.00 | 0.00 | 42 | 1012.7 |
| 20260503230505 | 58 | 225 | 0.0 | 0.0 | 0.00 | 0.00 | 0.00 | 42 | 1012.8 |
| 20260503230006 | 58 | 225 | 0.0 | 0.0 | 0.00 | 0.00 | 0.00 | 42 | 1012.7 |
| 20260503225505 | 58 | 225 | 0.0 | 0.0 | 0.00 | 0.00 | 0.00 | 41 | 1012.7 |
| 20260503225005 | 58 | 225 | 0.0 | 12.0 | 0.00 | 0.00 | 0.00 | 41 | 1012.7 |
| 20260503224506 | 58 | 267 | 0.0 | 12.0 | 0.00 | 0.00 | 0.00 | 41 | 1012.8 |
| 20260503224005 | 58 | 252 | 0.0 | 5.0 | 0.00 | 0.00 | 0.00 | 41 | 1012.8 |
| 20260503223506 | 59 | 269 | 0.0 | 0.0 | 0.00 | 0.00 | 0.00 | 41 | 1012.8 |
| 20260503222505 | 59 | 270 | 1.0 | 3.0 | 0.00 | 0.00 | 0.00 | 41 | 1012.8 |
| 20260503221006 | 59 | 263 | 1.0 | 8.0 | 0.00 | 0.00 | 0.00 | 41 | 1012.7 |
| 20260503220505 | 59 | 287 | 0.0 | 0.0 | 0.00 | 0.00 | 0.00 | 40 | 1012.7 |
| 20260503215505 | 60 | 287 | 0.0 | 6.0 | 0.00 | 0.00 | 0.00 | 40 | 1012.7 |
| 20260503215005 | 60 | 210 | 1.0 | 6.0 | 0.00 | 0.00 | 0.00 | 40 | 1012.8 |
| 20260503214505 | 60 | 325 | 1.0 | 7.0 | 0.00 | 0.00 | 0.00 | 40 | 1012.8 |
| 20260503214005 | 60 | 339 | 0.0 | 6.0 | 0.00 | 0.00 | 0.00 | 41 | 1012.8 |
| 20260503213506 | 60 | 256 | 1.0 | 7.0 | 0.00 | 0.00 | 0.00 | 40 | 1012.6 |